• In Czech Republic
  • List of Countries
  • For 7 days
  • Water Temperature
  • Satellite Maps
  • Weather Map
  • Weather Widgets
  • user-avatar
    Login

    Hourly Weather Neuquén

    Today, 15 August, Wednesday

    Time Temperature Precipitation Wind Pressure Humidity
    00:00 +9°C° 0 mm 3 mps 738 mmHg 28%
    01:00 +9°C° 0 mm 3 mps 738 mmHg 28%
    02:00 +9°C° 0 mm 3 mps 737 mmHg 29%
    03:00 +9°C° 0 mm 3 mps 737 mmHg 31%
    04:00 +8°C° 0 mm 3 mps 737 mmHg 32%
    05:00 +8°C° 0 mm 3 mps 737 mmHg 33%
    06:00 +8°C° 0 mm 2 mps 737 mmHg 34%
    07:00 +8°C° 0 mm 2 mps 737 mmHg 35%
    08:00 +10°C° 0 mm 2 mps 737 mmHg 31%
    09:00 +13°C° 0 mm 2 mps 737 mmHg 27%
    10:00 +15°C° 0 mm 2 mps 737 mmHg 23%
    11:00 +16°C° 0 mm 2 mps 736 mmHg 22%
    12:00 +17°C° 0 mm 2 mps 736 mmHg 20%
    13:00 +19°C° 0 mm 2 mps 735 mmHg 19%
    14:00 +19°C° 0 mm 2 mps 735 mmHg 19%
    15:00 +19°C° 0 mm 2 mps 735 mmHg 20%
    16:00 +19°C° 0 mm 2 mps 734 mmHg 20%
    17:00 +18°C° 0 mm 2 mps 734 mmHg 22%
    18:00 +17°C° 0 mm 2 mps 734 mmHg 24%
    19:00 +16°C° 0 mm 2 mps 734 mmHg 27%
    20:00 +15°C° 0 mm 2 mps 734 mmHg 27%
    21:00 +15°C° 0 mm 2 mps 734 mmHg 28%
    22:00 +13°C° 0 mm 3 mps 734 mmHg 29%
    23:00 +14°C° 0 mm 2 mps 734 mmHg 30%

    Tomorrow, 16 August, Thursday

    Time Temperature Precipitation Wind Pressure Humidity
    00:00 +13°C° 0 mm 2 mps 734 mmHg 31%
    01:00 +13°C° 0 mm 2 mps 734 mmHg 32%
    02:00 +13°C° 0 mm 2 mps 733 mmHg 33%
    03:00 +12°C° 0 mm 2 mps 733 mmHg 34%
    04:00 +12°C° 0 mm 1 mps 732 mmHg 35%
    05:00 +12°C° 0 mm 1 mps 732 mmHg 36%
    06:00 +12°C° 0 mm 1 mps 732 mmHg 36%
    07:00 +12°C° 0 mm 1 mps 733 mmHg 36%
    08:00 +15°C° 0 mm 2 mps 733 mmHg 31%
    09:00 +17°C° 0 mm 2 mps 733 mmHg 26%
    10:00 +20°C° 0 mm 3 mps 734 mmHg 21%
    11:00 +21°C° 0 mm 3 mps 733 mmHg 18%
    12:00 +22°C° 0 mm 4 mps 733 mmHg 15%
    13:00 +23°C° 0 mm 4 mps 733 mmHg 13%
    14:00 +22°C° 0 mm 3 mps 733 mmHg 13%
    15:00 +22°C° 0 mm 3 mps 733 mmHg 13%
    16:00 +21°C° 0 mm 3 mps 733 mmHg 13%
    17:00 +20°C° 0 mm 2 mps 733 mmHg 15%
    18:00 +18°C° 0 mm 2 mps 734 mmHg 17%
    19:00 +17°C° 0 mm 2 mps 734 mmHg 19%
    20:00 +16°C° 0 mm 2 mps 734 mmHg 21%
    21:00 +16°C° 0 mm 1 mps 734 mmHg 23%
    22:00 +15°C° 0 mm 1 mps 735 mmHg 25%
    23:00 +15°C° 0 mm 1 mps 734 mmHg 26%

    Day after tomorrow, 17 August, Friday

    Time Temperature Precipitation Wind Pressure Humidity
    00:00 +15°C° 0 mm 2 mps 734 mmHg 27%
    01:00 +14°C° 0 mm 3 mps 734 mmHg 28%
    02:00 +13°C° 0 mm 3 mps 734 mmHg 32%
    03:00 +13°C° 0 mm 3 mps 733 mmHg 35%
    04:00 +13°C° 0 mm 3 mps 733 mmHg 38%
    05:00 +12°C° 0 mm 3 mps 733 mmHg 42%
    06:00 +12°C° 0 mm 3 mps 733 mmHg 46%
    07:00 +12°C° 0 mm 3 mps 733 mmHg 50%
    08:00 +14°C° 0 mm 3 mps 733 mmHg 46%
    09:00 +15°C° 0 mm 4 mps 733 mmHg 43%
    10:00 +18°C° 0 mm 4 mps 733 mmHg 40%
    11:00 +18°C° 0 mm 4 mps 733 mmHg 38%
    12:00 +19°C° 0 mm 4 mps 732 mmHg 35%
    13:00 +20°C° 0 mm 4 mps 732 mmHg 32%
    14:00 +19°C° 0 mm 4 mps 732 mmHg 33%
    15:00 +19°C° 0 mm 5 mps 731 mmHg 33%
    16:00 +19°C° 0 mm 5 mps 731 mmHg 33%
    17:00 +17°C° 0.1 mm 5 mps 732 mmHg 40%
    18:00 +15°C° 0.1 mm 5 mps 732 mmHg 47%
    19:00 +14°C° 0.1 mm 4 mps 733 mmHg 54%
    20:00 +14°C° 0 mm 5 mps 733 mmHg 52%
    21:00 +13°C° 0 mm 6 mps 734 mmHg 51%
    22:00 +13°C° 0 mm 6 mps 734 mmHg 49%
    23:00 +11°C° 0 mm 7 mps 735 mmHg 49%

    18 August, Saturday

    Time Temperature Precipitation Wind Pressure Humidity
    00:00 +10°C° 0 mm 7 mps 735 mmHg 50%
    01:00 +9°C° 0 mm 7 mps 735 mmHg 50%
    02:00 +7°C° 0 mm 9 mps 736 mmHg 47%
    03:00 +6°C° 0 mm 11 mps 736 mmHg 43%
    04:00 +4°C° 0 mm 13 mps 737 mmHg 39%
    05:00 +4°C° 0 mm 12 mps 738 mmHg 39%
    06:00 +3°C° 0 mm 11 mps 740 mmHg 40%
    07:00 +3°C° 0 mm 10 mps 741 mmHg 40%
    08:00 +5°C° 0 mm 10 mps 741 mmHg 38%
    09:00 +6°C° 0 mm 10 mps 742 mmHg 36%
    10:00 +7°C° 0 mm 10 mps 742 mmHg 34%
    11:00 +8°C° 0 mm 9 mps 742 mmHg 32%
    12:00 +10°C° 0 mm 9 mps 741 mmHg 30%
    13:00 +11°C° 0 mm 9 mps 741 mmHg 28%
    14:00 +11°C° 0 mm 8 mps 741 mmHg 29%
    15:00 +11°C° 0 mm 8 mps 741 mmHg 29%
    16:00 +11°C° 0 mm 8 mps 741 mmHg 30%
    17:00 +10°C° 0 mm 7 mps 742 mmHg 33%
    18:00 +10°C° 0 mm 7 mps 742 mmHg 36%
    19:00 +9°C° 0 mm 6 mps 743 mmHg 39%
    20:00 +8°C° 0 mm 6 mps 744 mmHg 41%
    21:00 +8°C° 0 mm 6 mps 744 mmHg 43%
    22:00 +7°C° 0 mm 6 mps 745 mmHg 45%
    23:00 +7°C° 0 mm 5 mps 745 mmHg 46%

    19 August, Sunday

    Time Temperature Precipitation Wind Pressure Humidity
    00:00 +6°C° 0 mm 4 mps 745 mmHg 48%
    01:00 +5°C° 0 mm 4 mps 746 mmHg 49%
    02:00 +5°C° 0 mm 3 mps 746 mmHg 50%
    03:00 +4°C° 0 mm 3 mps 746 mmHg 52%
    04:00 +5°C° 0 mm 2 mps 746 mmHg 53%
    05:00 +5°C° 0 mm 2 mps 746 mmHg 53%
    06:00 +5°C° 0 mm 2 mps 747 mmHg 52%
    07:00 +5°C° 0 mm 2 mps 747 mmHg 52%
    08:00 +5°C° 0 mm 3 mps 747 mmHg 48%
    09:00 +7°C° 0 mm 4 mps 747 mmHg 43%
    10:00 +8°C° 0 mm 5 mps 748 mmHg 39%
    11:00 +10°C° 0 mm 4 mps 747 mmHg 35%
    12:00 +11°C° 0 mm 4 mps 746 mmHg 32%
    13:00 +12°C° 0 mm 4 mps 746 mmHg 28%
    14:00 +12°C° 0 mm 4 mps 745 mmHg 27%
    15:00 +13°C° 0 mm 4 mps 745 mmHg 26%
    16:00 +13°C° 0 mm 4 mps 744 mmHg 25%
    17:00 +12°C° 0 mm 4 mps 744 mmHg 27%
    18:00 +11°C° 0 mm 4 mps 744 mmHg 29%
    19:00 +10°C° 0 mm 4 mps 745 mmHg 32%
    20:00 +10°C° 0 mm 4 mps 744 mmHg 33%
    21:00 +9°C° 0 mm 5 mps 744 mmHg 34%
    22:00 +8°C° 0 mm 5 mps 744 mmHg 36%
    23:00 +8°C° 0 mm 5 mps 744 mmHg 36%

    20 August, Monday

    Time Temperature Precipitation Wind Pressure Humidity
    00:00 +8°C° 0 mm 6 mps 743 mmHg 37%
    01:00 +7°C° 0 mm 6 mps 743 mmHg 37%
    02:00 +7°C° 0 mm 6 mps 742 mmHg 37%
    03:00 +7°C° 0 mm 6 mps 742 mmHg 36%
    04:00 +5°C° 0 mm 7 mps 741 mmHg 36%
    05:00 +5°C° 0 mm 7 mps 741 mmHg 38%
    06:00 +5°C° 0 mm 7 mps 741 mmHg 40%
    07:00 +5°C° 0 mm 7 mps 741 mmHg 42%
    08:00 +7°C° 0 mm 8 mps 741 mmHg 37%
    09:00 +9°C° 0 mm 10 mps 740 mmHg 33%
    10:00 +12°C° 0 mm 11 mps 740 mmHg 29%
    11:00 +13°C° 0 mm 11 mps 739 mmHg 27%
    12:00 +14°C° 0 mm 10 mps 738 mmHg 25%
    13:00 +16°C° 0 mm 10 mps 737 mmHg 23%
    14:00 +17°C° 0 mm 10 mps 737 mmHg 23%
    15:00 +17°C° 0 mm 9 mps 736 mmHg 22%
    16:00 +17°C° 0 mm 8 mps 735 mmHg 21%
    17:00 +16°C° 0 mm 8 mps 735 mmHg 23%
    18:00 +15°C° 0 mm 7 mps 735 mmHg 25%
    19:00 +13°C° 0 mm 6 mps 735 mmHg 27%
    20:00 +13°C° 0 mm 5 mps 735 mmHg 29%
    21:00 +12°C° 0 mm 5 mps 735 mmHg 31%
    22:00 +10°C° 0 mm 5 mps 734 mmHg 33%
    23:00 +11°C° 0 mm 4 mps 734 mmHg 35%
    Show more